{"data":{"norad_id":53023,"intl_designator":"2022-076AP","name":"STARLINK-4284","alt_names":[],"object_type":"PAYLOAD","status":"ACTIVE","operator":null,"country":"US","launch_date":"2022-07-07","launch_site_code":"AFETR","launch_vehicle":null,"mission":null,"orbit_class":"UNKNOWN","rcs_meters":null,"size_class":null,"mass_kg":null,"dimensions":null,"purposes":["comms"],"wikipedia_slug":null,"has_3d_model":false,"image_url":null,"decayed_at":null,"tle_current":{"epoch":"2026-05-25T04:02:08.006208Z","epoch_age_seconds":54509,"freshness":"FRESH","line1":"1 53023U 22076AP  26145.16814822  .00000124  00000+0  25874-4 0  9996","line2":"2 53023  53.2128 100.7850 0001513  72.4167 287.6990 15.08832709214533","mean_motion":15.08832709,"eccentricity":0.0001513,"inclination_deg":53.2128,"raan_deg":100.785,"arg_perigee_deg":72.4167,"mean_anomaly_deg":287.699,"bstar":2.5874e-5,"rev_number":21453,"period_min":95.438015852293,"perigee_km":538.71899604935,"apogee_km":540.81235339872,"semimajor_km":6917.902674724,"source":"CELESTRAK","updated_at":"2026-05-25T13:38:17.281489Z"}}}